Location: Newark
(48.2103°N, 16.3662°E)
Time: 05:17:54
(UTC+00:00)

X-37B - Visible Passes

Search period start: 29 September 2020 00:00
Search period end: 09 October 2020 00:00
Orbit: 386 x 387 km, 45.0° (Epoch: 18 September)

Date Brightness Start Highest point End Pass type
(mag) Time Alt. Az. Time Alt. Az. Time Alt. Az.
03 Oct 2.5 18:13:45 10° SSW 18:15:15 19° S 18:15:15 19° S visible
04 Oct 2.6 17:15:57 10° S 17:17:57 16° SSE 17:19:29 12° ESE visible
04 Oct 3.3 18:51:04 10° WSW 18:51:46 15° SW 18:51:46 15° SW visible
05 Oct 1.6 17:52:45 10° SW 17:55:36 31° SSE 17:55:54 30° SSE visible
06 Oct 2.2 16:54:37 10° SSW 16:57:11 23° SSE 16:59:45 10° ESE visible
06 Oct 2.2 18:30:22 10° WSW 18:32:15 29° SW 18:32:15 29° SW visible
07 Oct 1.3 17:31:56 10° WSW 17:34:56 39° S 17:36:16 25° ESE visible
07 Oct 3.8 19:08:15 10° W 19:08:32 12° WSW 19:08:32 12° WSW visible
08 Oct 1.2 18:09:43 10° WSW 18:12:31 45° SSW 18:12:31 45° SSW visible
